Showing default

YUNYAO-1 48, 63349

Orbit data source: Space-Track

YUNYAO-1 48, 63349 is a payload satellite owned by Yunyao yuhang (CN) in SSO that was launched on Fri, 21 Mar 2025 UTC via a GUSHENXING 1 launch vehicle from the Jiuquan Satellite Launch Center, China (JSC). Payload-class satellites include a variety of spacecraft equipped with specific instruments for various scientific and technological missions. These include communications satellites like Starlink; space stations such as the ISS; scientific satellites like the Hubble; Earth observation satellites from companies like Planet Labs, Umbra, and HawkEye 360; GPS; miniature CubeSats for education and research; and military/defense satellites.

Loading next visibility...
Identifier
63349, 2025-059F
Orbit
SSO
Last TLE update
1 day ago
Origin
Manufacturer
Changguang WJ
Mission
Operational spacecraft
Bus & Motor
YY-1, Unknown motor
Mass
~50 kg wet, ~50 kg dry
Launch date (UTC)
2025-03-21 (1 month ago)
Launch vehicle
GUSHENXING 1
Launch site
Jiuquan Satellite Launch Center, China (JSC)
Object type
Payload
Rocket body
Debris
Shape & HBR
Unknown
Radar Cross Section
Medium (>0.1 m² and <1 m²)

Expand to show TLE details & history

TLE from 1 day ago
0 YUNYAO-1 48
1 63349U 25059F   25119.14610227  .00005983  00000-0  37104-3 0  9990
2 63349  97.5984 299.0164 0013912 153.1656 207.0296 15.10030958  5837
Epoch: 2025-04-29T03:30Z
Definitive object data (Epoch: 2025-04-29T03:30:23.236Z)
Latitude
0.00003°
Longitude
29.06962°
Altitude
547.75 km
Speed
7.583 km/s
True Right ascension
19h 56m 03s
True Declination
0° 00' 00"
Sunlit
Object was in daylight at TLE epoch
Visualization TLE readout
Latitude
55.94711°
Longitude
19.07359°
Altitude
545.733 km
Speed
7.595 km/s
Apparent Right ascension
06h 37m 20s
Apparent Declination
58° 02' 03"
Sunlit
Object is in daylight
Visualization observer readout
Local Sidereal Time
19:08:00
Azimuth
4.093° NNE
Elevation
8.16°
Doppler factor
1
Orbital elements
Apogee altitude
542.708 km
Perigee altitude
523.478 km
Semi-major axis
6,911.23 km
Eccentricity
0.0013912
Inclination
97.5984°
RAAN
299.0164°
Arg. of periapsis
153.1656°
True anomaly
206.95726°
Mean anomaly
207.0296°
Eccentric anomaly
206.99342°
Mean motion
3.77755 °/min
BSTAR
0.00037104
Orbital period
95.3 mins
Loading maneuver chart data...
Loading SW <> Apogee altitude chart data...
Loading historical data...
Loading historical data...
Loading historical data...
Loading historical data...
Loading historical data...
Loading historical data...
Loading historical data...
Other satellites on launch #59 in the year 2025 (2025-03-21 UTC)

YUNYAO-1 48 Visibility forecast

Observer location: undefined°, undefined°

Span
Click to sort rows by Start time (UTC) header in descending order
Start Az.
Max El. time (UTC)
Max El. Az.
Max El.
End time (UTC)
End Az.
6 mins2025-05-01 00:36:49.101Z25.131° NE2025-05-01 00:38:49.101Z64.486° ENE38.862°2025-05-01 00:42:49.101Z180.56° SSW
4 mins2025-05-01 11:19:49.101Z109.294° ESE2025-05-01 11:21:49.101Z58.375° ENE24.59°2025-05-01 11:23:49.101Z19.731° NNE
|